LRCL Weather Reports


time (UTC)temp
C
wind
direction
speed
KPH
gust
KPH
rain 1hr
cm
rain 24hr
cm
rain mn
cm
humidity
%
barometer
mb
20260504213324 12 270 11.3 0.0 0.00 0.00 0.00 54 1017.0
20260504211807 12 280 9.7 0.0 0.00 0.00 0.00 54 1017.0
20260504210308 12 280 9.7 0.0 0.00 0.00 0.00 54 1017.0
20260504204808 12 280 8.0 0.0 0.00 0.00 0.00 58 1016.0
20260504203309 12 280 8.0 0.0 0.00 0.00 0.00 58 1016.0
20260504201807 11 0 0.0 0.0 0.00 0.00 0.00 58 1016.0
20260504200308 11 0 0.0 0.0 0.00 0.00 0.00 58 1016.0
20260504194808 12 280 11.3 0.0 0.00 0.00 0.00 51 1016.0
20260504193308 12 280 11.3 0.0 0.00 0.00 0.00 51 1016.0
20260504191808 13 270 11.3 0.0 0.00 0.00 0.00 48 1016.0
20260504190308 13 270 11.3 0.0 0.00 0.00 0.00 48 1016.0
20260504184808 15 280 9.7 0.0 0.00 0.00 0.00 45 1016.0
20260504183318 15 280 9.7 0.0 0.00 0.00 0.00 45 1016.0
20260504181808 16 280 8.0 0.0 0.00 0.00 0.00 45 1015.0
20260504180308 16 280 8.0 0.0 0.00 0.00 0.00 45 1015.0
20260504174808 18 280 8.0 0.0 0.00 0.00 0.00 35 1015.0
20260504173308 18 280 8.0 0.0 0.00 0.00 0.00 35 1015.0
20260504171808 22 300 8.0 0.0 0.00 0.00 0.00 27 1015.0
20260504170308 22 300 8.0 0.0 0.00 0.00 0.00 27 1015.0
20260504160309 22 330 12.9 0.0 0.00 0.00 0.00 25 1015.0
20260504150308 23 340 14.5 0.0 0.00 0.00 0.00 24 1015.0
20260504140309 23 290 16.1 0.0 0.00 0.00 0.00 24 1016.0
20260504130308 23 330 14.5 0.0 0.00 0.00 0.00 25 1016.0
20260504120308 22 280 16.1 0.0 0.00 0.00 0.00 25 1017.0
20260504110308 22 300 17.7 0.0 0.00 0.00 0.00 25 1018.0
20260504100308 22 330 17.7 0.0 0.00 0.00 0.00 25 1018.0
20260504081808 20 340 16.1 0.0 0.00 0.00 0.00 30 1019.0
20260504080307 20 340 16.1 0.0 0.00 0.00 0.00 30 1019.0
20260504070309 17 270 14.5 0.0 0.00 0.00 0.00 37 1019.0
20260504050318 10 250 16.1 0.0 0.00 0.00 0.00 58 1019.0
20260504044808 7 260 12.9 0.0 0.00 0.00 0.00 66 1019.0
20260504043308 7 260 12.9 0.0 0.00 0.00 0.00 66 1019.0
20260504041808 7 280 9.7 0.0 0.00 0.00 0.00 66 1019.0
20260504040308 7 280 9.7 0.0 0.00 0.00 0.00 66 1019.0
20260504034808 6 280 12.9 0.0 0.00 0.00 0.00 71 1019.0
20260504033308 6 280 12.9 0.0 0.00 0.00 0.00 71 1019.0
20260504031808 6 280 11.3 0.0 0.00 0.00 0.00 71 1019.0
20260504030423 6 280 11.3 0.0 0.00 0.00 0.00 71 1019.0
20260504024809 6 280 11.3 0.0 0.00 0.00 0.00 71 1019.0
20260504023308 6 280 11.3 0.0 0.00 0.00 0.00 71 1019.0
20260504021807 7 280 11.3 0.0 0.00 0.00 0.00 66 1019.0
20260504020308 7 280 11.3 0.0 0.00 0.00 0.00 66 1019.0
20260504014808 6 280 12.9 0.0 0.00 0.00 0.00 71 1019.0
20260504013313 6 280 12.9 0.0 0.00 0.00 0.00 71 1019.0
20260504011923 7 290 11.3 0.0 0.00 0.00 0.00 66 1019.0
20260504010308 7 290 11.3 0.0 0.00 0.00 0.00 66 1019.0
20260504004923 7 270 9.7 0.0 0.00 0.00 0.00 66 1019.0
20260504003308 7 270 9.7 0.0 0.00 0.00 0.00 66 1019.0
20260504001808 7 280 11.3 0.0 0.00 0.00 0.00 62 1019.0
20260504000308 7 280 11.3 0.0 0.00 0.00 0.00 62 1019.0
20260503234847 7 260 12.9 0.0 0.00 0.00 0.00 62 1019.0
20260503233308 7 260 12.9 0.0 0.00 0.00 0.00 62 1019.0
20260503231811 7 270 11.3 0.0 0.00 0.00 0.00 62 1019.0
20260503230320 7 270 11.3 0.0 0.00 0.00 0.00 62 1019.0
20260503224808 7 290 8.0 0.0 0.00 0.00 0.00 62 1019.0
20260503223320 7 290 8.0 0.0 0.00 0.00 0.00 62 1019.0
20260503221824 7 280 9.7 0.0 0.00 0.00 0.00 66 1019.0
20260503220350 7 280 9.7 0.0 0.00 0.00 0.00 66 1019.0
20260503214815 7 270 8.0 0.0 0.00 0.00 0.00 66 1019.0